START_TIME,STEP,MOV.,M29,t_acc.,H22,t_acc.,H26,t_acc.,H30,t_acc.
1979-08-07 15:00:30.380 ,1,0,0.,24.0,0.,24.0,0.,24.0,0.,24.0
1979-08-07 15:00:54.380 ,2,1,0.,24.0,0.,24.0,0.,24.0,0.,24.0
1979-08-07 15:01:18.380 ,2,0,0.,24.0,0.,24.0,0.,24.0,0.,24.0
1979-08-07 15:01:42.380 ,3,1,0.,24.0,0.,24.0,0.,24.0,0.,24.0
1979-08-07 15:02:06.380 ,3,0,0.,24.0,0.,24.0,0.,24.0,0.,24.0
1979-08-07 15:02:30.380 ,4,1,0.,24.0,0.,24.0,0.,24.0,0.,24.0
1979-08-07 15:02:54.380 ,4,0,0.,24.0,0.,24.0,0.,24.0,0.,24.0
1979-08-07 15:03:18.380 ,5,1,0.,24.0,0.,24.0,0.,24.0,0.,24.0
1979-08-07 15:03:42.380 ,5,0,0.,24.0,0.,24.0,0.,24.0,0.,24.0
1979-08-07 15:04:06.380 ,6,1,0.,24.0,0.,24.0,0.,24.0,0.,24.0
1979-08-07 15:04:30.380 ,6,0,0.,24.0,0.,24.0,0.,24.0,0.,24.0
1979-08-07 15:04:54.380 ,7,1,0.,24.0,0.,24.0,0.,24.0,0.,24.0
1979-08-07 15:05:18.380 ,7,0,0.,24.0,0.,24.0,0.,24.0,0.,24.0
1979-08-07 15:05:42.380 ,7,1,0.,24.0,0.,24.0,0.,24.0,0.,24.0
1979-08-07 15:06:06.380 ,7,0,0.,24.0,0.,24.0,0.,24.0,0.,24.0
1979-08-07 15:06:30.380 ,6,1,0.,24.0,0.,24.0,0.,24.0,0.,24.0
1979-08-07 15:06:54.380 ,6,0,0.,24.0,0.,24.0,0.,24.0,0.,24.0
1979-08-07 15:07:18.380 ,5,1,0.,24.0,0.,24.0,0.,24.0,0.,24.0
1979-08-07 15:07:42.380 ,5,0,0.,24.0,0.,24.0,0.,24.0,0.,24.0
1979-08-07 15:08:06.380 ,4,1,0.,24.0,0.,24.0,0.,24.0,0.,24.0
1979-08-07 15:08:30.380 ,4,0,0.,24.0,0.,24.0,0.,24.0,0.,24.0
1979-08-07 15:08:54.380 ,3,1,0.,24.0,0.,24.0,0.,24.0,0.,24.0
1979-08-07 15:09:18.380 ,3,0,0.,24.0,0.,24.0,0.,24.0,0.,24.0
1979-08-07 15:09:42.380 ,2,1,0.,24.0,0.,24.0,0.,24.0,0.,24.0
1979-08-07 15:10:06.380 ,2,0,0.,24.0,0.,24.0,0.,24.0,0.,24.0
1979-08-07 15:10:30.380 ,1,1,0.,24.0,0.,24.0,0.,24.0,0.,24.0
1979-08-07 15:10:54.380 ,1,0,0.,24.0,0.,24.0,0.,24.0,0.,24.0
1979-08-07 15:11:18.380 ,0,1,0.,24.0,0.,24.0,0.,24.0,0.,24.0
1979-08-07 15:11:42.380 ,0,0,0.,24.0,0.,24.0,0.,24.0,0.,24.0
1979-08-07 15:12:06.380 ,0,1,1.,24.0,0.,24.0,0.,24.0,0.,24.0
1979-08-07 15:12:30.380 ,0,0,0.,24.0,0.,24.0,0.,24.0,0.,24.0
1979-08-07 15:12:54.380 ,1,1,0.,24.0,0.,24.0,0.,24.0,0.,24.0
1979-08-07 15:13:18.380 ,1,0,0.,24.0,0.,24.0,0.,24.0,0.,24.0
1979-08-07 15:13:42.380 ,2,1,0.,24.0,0.,24.0,0.,24.0,0.,24.0
1979-08-07 15:14:06.380 ,2,0,0.,24.0,0.,24.0,0.,24.0,0.,24.0
1979-08-07 15:14:30.380 ,3,1,0.,24.0,0.,24.0,0.,24.0,0.,24.0
1979-08-07 15:14:54.380 ,3,0,0.,24.0,0.,24.0,0.,24.0,0.,24.0
1979-08-07 15:15:18.380 ,4,1,0.,24.0,0.,24.0,0.,24.0,0.,24.0
1979-08-07 15:15:42.380 ,4,0,0.,24.0,0.,24.0,0.,24.0,0.,24.0
1979-08-07 15:16:06.380 ,5,1,0.,24.0,0.,24.0,0.,24.0,0.,24.0
1979-08-07 15:16:30.380 ,5,0,1.,24.0,0.,24.0,0.,24.0,0.,24.0
1979-08-07 15:16:54.380 ,6,1,0.,24.0,0.,24.0,0.,24.0,0.,24.0
1979-08-07 15:17:18.380 ,6,0,0.,24.0,0.,24.0,0.,24.0,0.,24.0
1979-08-07 15:17:42.380 ,7,1,0.,24.0,0.,24.0,0.,24.0,0.,24.0
1979-08-07 15:18:06.380 ,7,0,0.,24.0,0.,24.0,0.,24.0,0.,24.0
1979-08-07 15:18:06.380 ,7,0,0.,24.0,0.,24.0,0.,24.0,0.,24.0
1979-08-07 15:18:30.380 ,7,1,0.,24.0,0.,24.0,0.,24.0,0.,24.0
1979-08-07 15:18:54.380 ,7,0,0.,24.0,0.,24.0,0.,24.0,0.,24.0
1979-08-07 15:19:18.380 ,6,1,0.,24.0,0.,24.0,0.,24.0,0.,24.0
1979-08-07 15:19:42.380 ,6,0,0.,24.0,0.,24.0,0.,24.0,0.,24.0
1979-08-07 15:20:06.380 ,5,1,0.,24.0,0.,24.0,0.,24.0,0.,24.0
1979-08-07 15:20:30.380 ,5,0,0.,24.0,0.,24.0,0.,24.0,0.,24.0
1979-08-07 15:20:54.380 ,4,1,0.,24.0,0.,24.0,0.,24.0,0.,24.0
1979-08-07 15:21:18.380 ,4,0,0.,24.0,0.,24.0,0.,24.0,0.,24.0
1979-08-07 15:21:42.380 ,3,1,0.,24.0,0.,24.0,0.,24.0,0.,24.0
1979-08-07 15:22:06.380 ,3,0,0.,24.0,0.,24.0,0.,24.0,0.,24.0
1979-08-07 15:22:30.380 ,2,1,0.,24.0,0.,24.0,0.,24.0,0.,24.0
1979-08-07 15:22:54.380 ,2,0,0.,24.0,0.,24.0,0.,24.0,0.,24.0
1979-08-07 15:23:18.380 ,1,1,0.,24.0,0.,24.0,0.,24.0,0.,24.0
1979-08-07 15:23:42.380 ,1,0,0.,24.0,0.,24.0,0.,24.0,0.,24.0
1979-08-07 15:24:06.380 ,0,1,0.,24.0,0.,24.0,0.,24.0,0.,24.0
1979-08-07 15:24:30.380 ,0,0,0.,24.0,0.,24.0,0.,24.0,0.,24.0
1979-08-07 15:24:54.380 ,0,1,0.,24.0,0.,24.0,0.,24.0,0.,24.0
1979-08-07 15:25:18.380 ,0,0,0.,24.0,0.,24.0,0.,24.0,0.,24.0
1979-08-07 15:25:42.380 ,1,1,0.,24.0,0.,24.0,0.,24.0,0.,24.0
1979-08-07 15:26:06.380 ,1,0,0.,24.0,0.,24.0,0.,24.0,0.,24.0
1979-08-07 15:26:30.380 ,2,1,0.,24.0,0.,24.0,0.,24.0,0.,24.0
1979-08-07 15:26:54.380 ,2,0,0.,24.0,0.,24.0,0.,24.0,0.,24.0
1979-08-07 15:27:18.380 ,3,1,0.,24.0,0.,24.0,0.,24.0,0.,24.0
1979-08-07 15:27:42.380 ,3,0,0.,24.0,0.,24.0,0.,24.0,0.,24.0
1979-08-07 15:28:06.380 ,4,1,0.,24.0,0.,24.0,0.,24.0,0.,24.0
1979-08-07 15:28:30.380 ,4,0,0.,24.0,0.,24.0,0.,24.0,0.,24.0
1979-08-07 15:28:54.380 ,5,1,0.,24.0,0.,24.0,0.,24.0,0.,24.0
1979-08-07 15:29:18.380 ,5,0,0.,24.0,0.,24.0,0.,24.0,0.,24.0
1979-08-07 15:29:42.380 ,6,1,0.,24.0,0.,24.0,0.,24.0,0.,24.0
1979-08-07 15:30:06.380 ,6,0,0.,24.0,0.,24.0,0.,24.0,0.,24.0
1979-08-07 15:30:30.380 ,7,0,0.,24.0,0.,24.0,0.,24.0,0.,24.0
1979-08-07 15:30:54.380 ,7,0,0.,24.0,0.,24.0,0.,24.0,0.,24.0
1979-08-07 15:31:18.380 ,5,1,0.,24.0,0.,24.0,0.,24.0,0.,24.0
1979-08-07 15:31:42.380 ,1,1,0.,24.0,0.,24.0,0.,24.0,0.,24.0
1979-08-07 15:32:06.380 ,2,1,0.,24.0,0.,24.0,0.,24.0,0.,24.0
1979-08-07 15:32:30.380 ,6,1,0.,24.0,0.,24.0,0.,24.0,0.,24.0
1979-08-07 15:32:54.380 ,5,1,0.,24.0,0.,24.0,0.,24.0,0.,24.0
1979-08-07 15:33:18.380 ,1,1,0.,24.0,0.,24.0,0.,24.0,0.,24.0
1979-08-07 15:33:42.380 ,2,1,1.,24.0,0.,24.0,0.,24.0,0.,24.0
1979-08-07 15:34:06.380 ,6,1,0.,24.0,0.,24.0,0.,24.0,0.,24.0
1979-08-07 15:34:30.380 ,5,1,0.,24.0,0.,24.0,0.,24.0,0.,24.0
1979-08-07 15:34:54.380 ,1,1,0.,24.0,0.,24.0,0.,24.0,0.,24.0
1979-08-07 15:35:18.380 ,2,1,0.,24.0,0.,24.0,0.,24.0,0.,24.0
1979-08-07 15:35:42.380 ,6,1,0.,24.0,0.,24.0,0.,24.0,0.,24.0
1979-08-07 15:36:54.380 ,0,0,0.,24.0,0.,24.0,0.,24.0,0.,24.0
1979-08-07 15:37:18.380 ,6,1,0.,24.0,0.,24.0,0.,24.0,0.,24.0
1979-08-07 15:37:42.380 ,5,1,0.,24.0,0.,24.0,0.,24.0,0.,24.0
1979-08-07 15:38:06.380 ,1,1,0.,24.0,0.,24.0,0.,24.0,0.,24.0
1979-08-07 15:38:30.380 ,2,1,0.,24.0,0.,24.0,0.,24.0,0.,24.0
1979-08-07 15:38:54.380 ,6,1,0.,24.0,0.,24.0,0.,24.0,0.,24.0
1979-08-07 15:39:18.380 ,5,1,0.,24.0,0.,24.0,0.,24.0,0.,24.0
1979-08-07 15:39:42.380 ,1,1,0.,24.0,0.,24.0,0.,24.0,0.,24.0
1979-08-07 15:40:06.380 ,2,1,0.,24.0,0.,24.0,0.,24.0,0.,24.0
1979-08-07 15:40:30.380 ,6,1,0.,24.0,0.,24.0,0.,24.0,1.,24.0
1979-08-07 15:40:54.380 ,5,1,0.,24.0,0.,24.0,0.,24.0,0.,24.0
1979-08-07 15:41:18.380 ,1,1,0.,24.0,0.,24.0,0.,24.0,0.,24.0
1979-08-07 15:41:42.380 ,0,0,0.,24.0,0.,24.0,0.,24.0,0.,24.0
1979-08-07 15:42:06.380 ,0,0,0.,24.0,0.,24.0,0.,24.0,0.,24.0
1979-08-07 15:42:30.380 ,5,1,0.,24.0,0.,24.0,0.,24.0,0.,24.0
1979-08-07 15:42:54.380 ,5,0,0.,24.0,0.,24.0,0.,24.0,0.,24.0
1979-08-07 15:43:18.380 ,4,1,0.,24.0,0.,24.0,0.,24.0,0.,24.0
1979-08-07 15:43:42.380 ,4,0,0.,24.0,0.,24.0,0.,24.0,0.,24.0
1979-08-07 15:44:06.380 ,3,1,0.,24.0,0.,24.0,0.,24.0,0.,24.0
1979-08-07 15:44:30.380 ,3,0,0.,24.0,0.,24.0,0.,24.0,0.,24.0
1979-08-07 15:44:54.380 ,2,1,1.,24.0,0.,24.0,0.,24.0,0.,24.0
1979-08-07 15:45:18.380 ,2,0,0.,24.0,0.,24.0,0.,24.0,0.,24.0
1979-08-07 15:45:42.380 ,1,1,0.,24.0,0.,24.0,0.,24.0,0.,24.0
1979-08-07 15:46:06.380 ,1,0,0.,24.0,0.,24.0,0.,24.0,0.,24.0
1979-08-07 15:46:30.380 ,0,1,0.,24.0,0.,24.0,0.,24.0,0.,24.0
1979-08-07 15:46:54.380 ,0,0,0.,24.0,0.,24.0,0.,24.0,0.,24.0
1979-08-07 15:47:18.380 ,0,1,0.,24.0,0.,24.0,0.,24.0,0.,24.0
1979-08-07 15:47:42.380 ,0,0,0.,24.0,0.,24.0,0.,24.0,0.,24.0
1979-08-07 15:48:06.380 ,1,1,0.,24.0,0.,24.0,0.,24.0,0.,24.0
1979-08-07 15:48:30.380 ,1,0,0.,24.0,0.,24.0,0.,24.0,0.,24.0
1979-08-07 15:48:54.380 ,2,1,0.,24.0,0.,24.0,0.,24.0,0.,24.0
1979-08-07 15:49:18.380 ,2,0,0.,24.0,0.,24.0,0.,24.0,0.,24.0
1979-08-07 15:49:42.380 ,3,1,0.,24.0,0.,24.0,0.,24.0,0.,24.0
1979-08-07 15:50:06.380 ,3,0,0.,24.0,0.,24.0,0.,24.0,0.,24.0
1979-08-07 15:50:30.380 ,4,1,0.,24.0,0.,24.0,0.,24.0,0.,24.0
1979-08-07 15:50:54.380 ,4,0,0.,24.0,0.,24.0,0.,24.0,0.,24.0
1979-08-07 15:51:18.380 ,5,1,0.,24.0,0.,24.0,0.,24.0,0.,24.0
1979-08-07 15:51:42.380 ,5,0,0.,24.0,0.,24.0,0.,24.0,0.,24.0
1979-08-07 15:52:06.380 ,6,1,0.,24.0,0.,24.0,0.,24.0,0.,24.0
1979-08-07 15:52:30.380 ,6,0,0.,24.0,0.,24.0,0.,24.0,0.,24.0
1979-08-07 15:52:54.380 ,7,1,0.,24.0,0.,24.0,0.,24.0,0.,24.0
1979-08-07 15:53:18.380 ,7,0,0.,24.0,0.,24.0,0.,24.0,0.,24.0
1979-08-07 15:53:42.380 ,7,1,0.,24.0,0.,24.0,0.,24.0,0.,24.0
1979-08-07 15:54:06.380 ,7,0,0.,24.0,0.,24.0,0.,24.0,0.,24.0
1979-08-07 15:54:30.380 ,6,1,0.,24.0,0.,24.0,0.,24.0,0.,24.0
1979-08-07 15:54:54.380 ,6,0,1.,24.0,0.,24.0,0.,24.0,0.,24.0
1979-08-07 15:55:18.380 ,5,1,0.,24.0,0.,24.0,0.,24.0,0.,24.0
1979-08-07 15:55:42.380 ,5,0,0.,24.0,0.,24.0,0.,24.0,0.,24.0
1979-08-07 15:56:06.380 ,4,1,0.,24.0,0.,24.0,0.,24.0,0.,24.0
1979-08-07 15:56:30.380 ,4,0,0.,24.0,0.,24.0,0.,24.0,0.,24.0
1979-08-07 15:56:54.380 ,3,1,0.,24.0,0.,24.0,0.,24.0,0.,24.0
1979-08-07 15:57:18.380 ,3,0,0.,24.0,0.,24.0,0.,24.0,0.,24.0
1979-08-07 15:57:42.380 ,2,1,0.,24.0,0.,24.0,0.,24.0,0.,24.0
1979-08-07 15:58:06.380 ,2,0,0.,24.0,0.,24.0,0.,24.0,0.,24.0
1979-08-07 15:58:30.380 ,1,1,0.,24.0,0.,24.0,0.,24.0,0.,24.0
1979-08-07 15:58:54.380 ,1,0,0.,24.0,0.,24.0,0.,24.0,0.,24.0
1979-08-07 15:59:18.380 ,0,1,0.,24.0,0.,24.0,0.,24.0,0.,24.0
1979-08-07 15:59:42.380 ,0,0,0.,24.0,0.,24.0,0.,24.0,0.,24.0
1979-08-07 16:00:06.380 ,0,1,0.,24.0,0.,24.0,0.,24.0,0.,24.0
1979-08-07 16:00:30.380 ,0,0,0.,24.0,0.,24.0,0.,24.0,0.,24.0
1979-08-07 16:00:54.380 ,1,1,0.,24.0,0.,24.0,0.,24.0,0.,24.0
1979-08-07 16:01:18.380 ,1,0,0.,24.0,0.,24.0,0.,24.0,0.,24.0
1979-08-07 16:01:42.380 ,2,1,0.,24.0,0.,24.0,0.,24.0,0.,24.0
1979-08-07 16:02:06.380 ,2,0,0.,24.0,0.,24.0,0.,24.0,0.,24.0
1979-08-07 16:02:30.380 ,3,1,0.,24.0,0.,24.0,0.,24.0,0.,24.0
1979-08-07 16:02:54.380 ,3,0,0.,24.0,0.,24.0,0.,24.0,0.,24.0
1979-08-07 16:03:18.380 ,4,1,0.,24.0,0.,24.0,0.,24.0,0.,24.0
1979-08-07 16:03:42.380 ,4,0,0.,24.0,0.,24.0,0.,24.0,0.,24.0
1979-08-07 16:04:06.380 ,5,1,0.,24.0,0.,24.0,0.,24.0,0.,24.0
1979-08-07 16:04:30.380 ,5,0,0.,24.0,0.,24.0,0.,24.0,0.,24.0
1979-08-07 16:04:54.380 ,6,1,0.,24.0,0.,24.0,0.,24.0,0.,24.0
1979-08-07 16:05:18.380 ,6,0,0.,24.0,0.,24.0,0.,24.0,0.,24.0
1979-08-07 16:05:42.380 ,7,1,0.,24.0,0.,24.0,0.,24.0,0.,24.0
1979-08-07 16:06:06.380 ,7,0,0.,24.0,0.,24.0,0.,24.0,0.,24.0
1979-08-07 16:06:30.380 ,7,1,0.,24.0,0.,24.0,0.,24.0,0.,24.0
1979-08-07 16:06:54.380 ,7,0,0.,24.0,0.,24.0,0.,24.0,0.,24.0
1979-08-07 16:07:18.380 ,6,1,0.,24.0,0.,24.0,0.,24.0,0.,24.0
1979-08-07 16:07:42.380 ,6,0,1.,24.0,0.,24.0,0.,24.0,0.,24.0
1979-08-07 16:08:06.380 ,5,1,0.,24.0,0.,24.0,0.,24.0,0.,24.0
1979-08-07 16:08:30.380 ,5,0,0.,24.0,0.,24.0,0.,24.0,0.,24.0
1979-08-07 16:08:54.380 ,4,1,0.,24.0,0.,24.0,0.,24.0,0.,24.0
1979-08-07 16:09:18.380 ,4,0,0.,24.0,0.,24.0,0.,24.0,0.,24.0
1979-08-07 16:09:42.380 ,3,1,0.,24.0,0.,24.0,0.,24.0,0.,24.0
1979-08-07 16:10:06.380 ,3,0,0.,24.0,0.,24.0,0.,24.0,0.,24.0
1979-08-07 16:10:30.380 ,2,1,0.,24.0,0.,24.0,0.,24.0,0.,24.0
1979-08-07 16:10:54.380 ,2,0,0.,24.0,0.,24.0,0.,24.0,0.,24.0
1979-08-07 16:11:18.380 ,1,1,0.,24.0,0.,24.0,0.,24.0,0.,24.0
1979-08-07 16:11:42.380 ,1,0,0.,24.0,0.,24.0,0.,24.0,0.,24.0
1979-08-07 16:12:06.380 ,0,1,0.,24.0,0.,24.0,0.,24.0,0.,24.0
1979-08-07 16:12:30.380 ,0,0,0.,24.0,0.,24.0,0.,24.0,0.,24.0
1979-08-07 16:12:54.380 ,0,1,0.,24.0,0.,24.0,0.,24.0,0.,24.0
1979-08-07 16:13:18.380 ,0,0,0.,24.0,0.,24.0,0.,24.0,0.,24.0
1979-08-07 16:13:42.380 ,1,1,0.,24.0,0.,24.0,0.,24.0,0.,24.0
1979-08-07 16:14:06.380 ,1,0,0.,24.0,0.,24.0,0.,24.0,0.,24.0
1979-08-07 16:14:30.380 ,2,1,0.,24.0,0.,24.0,0.,24.0,0.,24.0
1979-08-07 16:14:54.380 ,2,0,0.,24.0,0.,24.0,0.,24.0,0.,24.0
1979-08-07 16:15:18.380 ,3,1,0.,24.0,0.,24.0,0.,24.0,0.,24.0
1979-08-07 16:15:42.380 ,3,0,0.,24.0,0.,24.0,0.,24.0,0.,24.0
1979-08-07 16:16:06.380 ,4,1,0.,24.0,0.,24.0,0.,24.0,0.,24.0
1979-08-07 16:16:30.380 ,4,0,0.,24.0,0.,24.0,0.,24.0,0.,24.0
1979-08-07 16:16:54.380 ,5,1,0.,24.0,0.,24.0,0.,24.0,0.,24.0
1979-08-07 16:17:18.380 ,5,0,0.,24.0,0.,24.0,0.,24.0,0.,24.0
1979-08-07 16:17:42.380 ,6,1,0.,24.0,0.,24.0,0.,24.0,0.,24.0
1979-08-07 16:18:06.380 ,6,0,0.,24.0,0.,24.0,0.,24.0,0.,24.0
1979-08-07 16:18:30.380 ,7,0,0.,24.0,0.,24.0,0.,24.0,0.,24.0
1979-08-07 16:18:54.380 ,7,0,0.,24.0,0.,24.0,0.,24.0,0.,24.0
1979-08-07 16:19:18.380 ,5,1,0.,24.0,0.,24.0,0.,24.0,0.,24.0
1979-08-07 16:19:42.380 ,1,1,1.,24.0,0.,24.0,0.,24.0,0.,24.0
1979-08-07 16:20:06.380 ,2,1,0.,24.0,0.,24.0,0.,24.0,0.,24.0
1979-08-07 16:20:30.380 ,6,1,0.,24.0,0.,24.0,0.,24.0,0.,24.0
1979-08-07 16:20:54.380 ,5,1,0.,24.0,0.,24.0,0.,24.0,0.,24.0
1979-08-07 16:21:18.380 ,1,1,0.,24.0,0.,24.0,0.,24.0,0.,24.0
1979-08-07 16:21:42.380 ,2,1,0.,24.0,0.,24.0,0.,24.0,0.,24.0
1979-08-07 16:22:06.380 ,6,1,0.,24.0,0.,24.0,0.,24.0,0.,24.0
1979-08-07 16:22:30.380 ,5,1,0.,24.0,0.,24.0,0.,24.0,0.,24.0
1979-08-07 16:22:54.380 ,1,1,0.,24.0,0.,24.0,0.,24.0,0.,24.0
1979-08-07 16:23:18.380 ,2,1,0.,24.0,0.,24.0,0.,24.0,0.,24.0
1979-08-07 16:23:42.380 ,6,1,0.,24.0,0.,24.0,0.,24.0,0.,24.0
1979-08-07 16:24:06.380 ,5,1,0.,24.0,0.,24.0,0.,24.0,0.,24.0
1979-08-07 16:24:30.380 ,1,1,0.,24.0,0.,24.0,0.,24.0,0.,24.0
1979-08-07 16:24:54.380 ,2,1,0.,24.0,0.,24.0,0.,24.0,0.,24.0
1979-08-07 16:25:18.380 ,6,1,0.,24.0,0.,24.0,0.,24.0,0.,24.0
1979-08-07 16:25:42.380 ,5,1,0.,24.0,0.,24.0,0.,24.0,0.,24.0
1979-08-07 16:26:06.380 ,1,1,0.,24.0,0.,24.0,0.,24.0,0.,24.0
1979-08-07 16:26:30.380 ,2,1,0.,24.0,0.,24.0,0.,24.0,0.,24.0
1979-08-07 16:26:54.380 ,6,1,0.,24.0,0.,24.0,0.,24.0,0.,24.0
1979-08-07 16:27:18.380 ,5,1,0.,24.0,0.,24.0,0.,24.0,0.,24.0
1979-08-07 16:27:42.380 ,1,1,0.,24.0,0.,24.0,0.,24.0,0.,24.0
1979-08-07 16:28:06.380 ,2,1,0.,24.0,0.,24.0,0.,24.0,0.,24.0
1979-08-07 16:28:30.380 ,6,1,0.,24.0,0.,24.0,0.,24.0,0.,24.0
1979-08-07 16:28:54.380 ,5,1,0.,24.0,0.,24.0,0.,24.0,0.,24.0
1979-08-07 16:29:18.380 ,1,1,0.,24.0,0.,24.0,0.,24.0,0.,24.0
1979-08-07 16:29:42.380 ,0,0,0.,24.0,0.,24.0,0.,24.0,0.,24.0
1979-08-07 16:30:06.380 ,0,0,0.,24.0,0.,24.0,0.,24.0,0.,24.0
1979-08-07 16:30:30.380 ,5,1,0.,24.0,0.,24.0,0.,24.0,0.,24.0
1979-08-07 16:30:54.380 ,5,0,0.,24.0,0.,24.0,0.,24.0,0.,24.0
1979-08-07 16:31:18.380 ,4,1,0.,24.0,0.,24.0,0.,24.0,0.,24.0
1979-08-07 16:31:42.380 ,4,0,0.,24.0,0.,24.0,0.,24.0,0.,24.0
1979-08-07 16:32:06.380 ,3,1,0.,24.0,0.,24.0,0.,24.0,0.,24.0
1979-08-07 16:32:30.380 ,3,0,0.,24.0,0.,24.0,0.,24.0,0.,24.0
1979-08-07 16:32:54.380 ,2,1,0.,24.0,0.,24.0,0.,24.0,0.,24.0
1979-08-07 16:33:18.380 ,2,0,0.,24.0,0.,24.0,0.,24.0,0.,24.0
1979-08-07 16:33:42.380 ,1,1,0.,24.0,0.,24.0,0.,24.0,0.,24.0
1979-08-07 16:34:06.380 ,1,0,0.,24.0,0.,24.0,0.,24.0,0.,24.0
1979-08-07 16:34:30.380 ,0,1,0.,24.0,0.,24.0,0.,24.0,0.,24.0
1979-08-07 16:34:54.380 ,0,0,0.,24.0,0.,24.0,0.,24.0,0.,24.0
1979-08-07 16:35:18.380 ,0,1,0.,24.0,0.,24.0,0.,24.0,0.,24.0
1979-08-07 16:35:42.380 ,0,0,0.,24.0,0.,24.0,0.,24.0,0.,24.0
1979-08-07 16:36:06.380 ,1,1,0.,24.0,0.,24.0,0.,24.0,0.,24.0
1979-08-07 16:36:30.380 ,1,0,0.,24.0,0.,24.0,0.,24.0,0.,24.0
1979-08-07 16:36:54.380 ,2,1,0.,24.0,0.,24.0,0.,24.0,0.,24.0
1979-08-07 16:37:18.380 ,2,0,0.,24.0,0.,24.0,0.,24.0,0.,24.0
1979-08-07 16:37:42.380 ,3,1,0.,24.0,0.,24.0,0.,24.0,0.,24.0
1979-08-07 16:38:06.380 ,3,0,0.,24.0,0.,24.0,0.,24.0,0.,24.0
1979-08-07 16:38:30.380 ,4,1,0.,24.0,0.,24.0,0.,24.0,0.,24.0
1979-08-07 16:38:54.380 ,4,0,0.,24.0,0.,24.0,0.,24.0,0.,24.0
1979-08-07 16:39:18.380 ,5,1,0.,24.0,0.,24.0,0.,24.0,0.,24.0
1979-08-07 16:39:42.380 ,5,0,0.,24.0,0.,24.0,0.,24.0,0.,24.0
1979-08-07 16:40:06.380 ,6,1,0.,24.0,0.,24.0,0.,24.0,0.,24.0
1979-08-07 16:40:30.380 ,6,0,0.,24.0,0.,24.0,0.,24.0,0.,24.0
1979-08-07 16:40:54.380 ,7,1,0.,24.0,0.,24.0,0.,24.0,0.,24.0
1979-08-07 16:41:18.380 ,7,0,0.,24.0,0.,24.0,0.,24.0,0.,24.0
1979-08-07 16:41:42.380 ,7,1,0.,24.0,0.,24.0,0.,24.0,0.,24.0
1979-08-07 16:42:06.380 ,7,0,0.,24.0,0.,24.0,0.,24.0,0.,24.0
1979-08-07 16:42:30.380 ,6,1,0.,24.0,0.,24.0,0.,24.0,0.,24.0
1979-08-07 16:42:54.380 ,6,0,0.,24.0,0.,24.0,0.,24.0,0.,24.0
1979-08-07 16:43:18.380 ,5,1,0.,24.0,0.,24.0,0.,24.0,0.,24.0
1979-08-07 16:43:42.380 ,5,0,0.,24.0,0.,24.0,0.,24.0,0.,24.0
1979-08-07 16:44:06.380 ,4,1,0.,24.0,0.,24.0,0.,24.0,0.,24.0
1979-08-07 16:44:30.380 ,4,0,0.,24.0,0.,24.0,0.,24.0,0.,24.0
1979-08-07 16:44:54.380 ,3,1,0.,24.0,0.,24.0,0.,24.0,0.,24.0
1979-08-07 16:45:18.380 ,3,0,0.,24.0,0.,24.0,0.,24.0,0.,24.0
1979-08-07 16:45:42.380 ,2,1,0.,24.0,0.,24.0,0.,24.0,0.,24.0
1979-08-07 16:46:06.380 ,2,0,0.,24.0,0.,24.0,0.,24.0,0.,24.0
1979-08-07 16:46:30.380 ,1,1,0.,24.0,0.,24.0,0.,24.0,0.,24.0
1979-08-07 16:46:30.380 ,1,1,0.,24.0,0.,24.0,0.,24.0,0.,24.0
1979-08-07 16:46:54.380 ,1,0,0.,24.0,0.,24.0,0.,24.0,0.,24.0
1979-08-07 16:47:18.380 ,0,1,0.,24.0,0.,24.0,0.,24.0,0.,24.0
1979-08-07 16:47:42.380 ,0,0,0.,24.0,0.,24.0,0.,24.0,0.,24.0
1979-08-07 16:48:06.380 ,0,1,0.,24.0,0.,24.0,0.,24.0,0.,24.0
1979-08-07 16:48:30.380 ,0,0,0.,24.0,0.,24.0,0.,24.0,0.,24.0
1979-08-07 16:48:54.380 ,1,1,0.,24.0,0.,24.0,0.,24.0,0.,24.0
1979-08-07 16:49:18.380 ,1,0,0.,24.0,0.,24.0,0.,24.0,0.,24.0
1979-08-07 16:49:42.380 ,2,1,0.,24.0,0.,24.0,0.,24.0,0.,24.0
1979-08-07 16:50:06.380 ,2,0,0.,24.0,0.,24.0,0.,24.0,0.,24.0
1979-08-07 16:50:30.380 ,3,1,0.,24.0,0.,24.0,0.,24.0,0.,24.0
1979-08-07 16:50:30.380 ,3,1,0.,24.0,0.,24.0,0.,24.0,0.,24.0
1979-08-07 16:50:54.380 ,3,0,0.,24.0,0.,24.0,0.,24.0,0.,24.0
1979-08-07 16:51:18.380 ,4,1,0.,24.0,0.,24.0,0.,24.0,0.,24.0
1979-08-07 16:51:42.380 ,4,0,0.,24.0,0.,24.0,0.,24.0,0.,24.0
1979-08-07 16:52:06.380 ,5,1,0.,24.0,0.,24.0,0.,24.0,0.,24.0
1979-08-07 16:52:30.380 ,5,0,0.,24.0,0.,24.0,0.,24.0,0.,24.0
1979-08-07 16:52:54.380 ,6,1,0.,24.0,0.,24.0,0.,24.0,0.,24.0
1979-08-07 16:53:18.380 ,6,0,0.,24.0,0.,24.0,0.,24.0,0.,24.0
1979-08-07 16:53:42.380 ,7,1,0.,24.0,0.,24.0,0.,24.0,0.,24.0
1979-08-07 16:54:06.380 ,7,0,0.,24.0,0.,24.0,0.,24.0,0.,24.0
1979-08-07 16:54:30.380 ,7,1,0.,24.0,0.,24.0,0.,24.0,0.,24.0
1979-08-07 16:54:54.380 ,7,0,0.,24.0,0.,24.0,0.,24.0,0.,24.0
1979-08-07 16:55:18.380 ,6,1,0.,24.0,0.,24.0,0.,24.0,0.,24.0
1979-08-07 16:55:42.380 ,6,0,0.,24.0,0.,24.0,0.,24.0,0.,24.0
1979-08-07 16:56:06.380 ,5,1,0.,24.0,0.,24.0,0.,24.0,0.,24.0
1979-08-07 16:56:30.380 ,5,0,0.,24.0,0.,24.0,0.,24.0,0.,24.0
1979-08-07 16:56:54.380 ,4,1,0.,24.0,0.,24.0,0.,24.0,0.,24.0
1979-08-07 16:57:18.380 ,4,0,0.,24.0,0.,24.0,0.,24.0,0.,24.0
1979-08-07 16:57:42.380 ,3,1,0.,24.0,0.,24.0,0.,24.0,0.,24.0
1979-08-07 16:58:06.380 ,3,0,0.,24.0,0.,24.0,0.,24.0,0.,24.0
1979-08-07 16:58:30.380 ,2,1,0.,24.0,0.,24.0,0.,24.0,0.,24.0
1979-08-07 16:58:54.380 ,2,0,0.,24.0,0.,24.0,0.,24.0,0.,24.0
1979-08-07 16:59:18.380 ,1,1,0.,24.0,0.,24.0,0.,24.0,0.,24.0
1979-08-07 16:59:42.380 ,1,0,0.,24.0,0.,24.0,0.,24.0,0.,24.0
1979-08-07 17:00:06.380 ,0,1,0.,24.0,0.,24.0,0.,24.0,0.,24.0
1979-08-07 17:00:30.380 ,0,0,0.,24.0,0.,24.0,0.,24.0,0.,24.0
1979-08-07 17:00:54.380 ,0,1,0.,24.0,0.,24.0,0.,24.0,0.,24.0
1979-08-07 17:01:18.380 ,0,0,0.,24.0,0.,24.0,0.,24.0,0.,24.0
1979-08-07 17:01:42.380 ,1,1,0.,24.0,0.,24.0,0.,24.0,0.,24.0
1979-08-07 17:02:06.380 ,1,0,0.,24.0,0.,24.0,0.,24.0,0.,24.0
1979-08-07 17:02:30.380 ,2,1,0.,24.0,0.,24.0,0.,24.0,0.,24.0
1979-08-07 17:02:54.380 ,2,0,0.,24.0,0.,24.0,0.,24.0,0.,24.0
1979-08-07 17:03:18.380 ,3,1,0.,24.0,0.,24.0,0.,24.0,0.,24.0
1979-08-07 17:03:42.380 ,3,0,0.,24.0,0.,24.0,0.,24.0,0.,24.0
1979-08-07 17:04:06.380 ,4,1,0.,24.0,0.,24.0,0.,24.0,0.,24.0
1979-08-07 17:04:30.380 ,4,0,0.,24.0,0.,24.0,0.,24.0,0.,24.0
1979-08-07 17:04:54.380 ,5,1,0.,24.0,0.,24.0,0.,24.0,0.,24.0
1979-08-07 17:05:18.380 ,5,0,0.,24.0,0.,24.0,0.,24.0,0.,24.0
1979-08-07 17:05:42.380 ,6,1,0.,24.0,0.,24.0,0.,24.0,0.,24.0
1979-08-07 17:06:06.380 ,6,0,0.,24.0,0.,24.0,0.,24.0,0.,24.0
1979-08-07 17:06:30.380 ,7,0,0.,24.0,0.,24.0,0.,24.0,0.,24.0
1979-08-07 17:06:54.380 ,7,0,0.,24.0,0.,24.0,0.,24.0,0.,24.0
1979-08-07 17:07:18.380 ,5,1,0.,24.0,0.,24.0,0.,24.0,0.,24.0
1979-08-07 17:07:42.380 ,1,1,0.,24.0,0.,24.0,0.,24.0,0.,24.0
1979-08-07 17:08:06.380 ,2,1,0.,24.0,0.,24.0,0.,24.0,0.,24.0
1979-08-07 17:08:30.380 ,6,1,1.,24.0,0.,24.0,0.,24.0,0.,24.0
1979-08-07 17:08:54.380 ,5,1,0.,24.0,0.,24.0,0.,24.0,0.,24.0
1979-08-07 17:09:18.380 ,1,1,0.,24.0,0.,24.0,0.,24.0,0.,24.0
1979-08-07 17:09:42.380 ,2,1,0.,24.0,0.,24.0,0.,24.0,0.,24.0
1979-08-07 17:10:06.380 ,6,1,0.,24.0,0.,24.0,0.,24.0,0.,24.0
1979-08-07 17:10:30.380 ,5,1,0.,24.0,0.,24.0,0.,24.0,0.,24.0
1979-08-07 17:10:54.380 ,1,1,0.,24.0,0.,24.0,0.,24.0,0.,24.0
1979-08-07 17:11:18.380 ,2,1,0.,24.0,0.,24.0,0.,24.0,0.,24.0
1979-08-07 17:11:42.380 ,6,1,0.,24.0,0.,24.0,0.,24.0,0.,24.0
1979-08-07 17:12:06.380 ,5,1,0.,24.0,0.,24.0,0.,24.0,0.,24.0
1979-08-07 17:12:30.380 ,1,1,0.,24.0,0.,24.0,0.,24.0,0.,24.0
1979-08-07 17:12:54.380 ,2,1,0.,24.0,0.,24.0,0.,24.0,0.,24.0
1979-08-07 17:13:18.380 ,6,1,0.,24.0,0.,24.0,0.,24.0,0.,24.0
1979-08-07 17:13:42.380 ,5,1,0.,24.0,0.,24.0,0.,24.0,0.,24.0
1979-08-07 17:14:06.380 ,1,1,0.,24.0,0.,24.0,0.,24.0,0.,24.0
1979-08-07 17:14:30.380 ,2,1,0.,24.0,0.,24.0,0.,24.0,0.,24.0
1979-08-07 17:14:54.380 ,6,1,0.,24.0,0.,24.0,0.,24.0,0.,24.0
1979-08-07 17:15:18.380 ,5,1,0.,24.0,0.,24.0,0.,24.0,0.,24.0
1979-08-07 17:15:42.380 ,1,1,0.,24.0,0.,24.0,0.,24.0,0.,24.0
1979-08-07 17:16:06.380 ,2,1,0.,24.0,0.,24.0,0.,24.0,0.,24.0
1979-08-07 17:16:30.380 ,6,1,0.,24.0,0.,24.0,0.,24.0,0.,24.0
1979-08-07 17:16:54.380 ,5,1,0.,24.0,0.,24.0,0.,24.0,0.,24.0
1979-08-07 17:17:18.380 ,1,1,0.,24.0,0.,24.0,0.,24.0,0.,24.0
1979-08-07 17:17:42.380 ,0,0,0.,24.0,0.,24.0,0.,24.0,0.,24.0
1979-08-07 17:18:06.380 ,0,0,1.,24.0,0.,24.0,0.,24.0,0.,24.0
1979-08-07 17:18:30.380 ,5,1,0.,24.0,0.,24.0,0.,24.0,0.,24.0
1979-08-07 17:18:54.380 ,5,0,0.,24.0,0.,24.0,0.,24.0,0.,24.0
1979-08-07 17:19:18.380 ,4,1,0.,24.0,0.,24.0,0.,24.0,0.,24.0
1979-08-07 17:19:42.380 ,4,0,0.,24.0,0.,24.0,0.,24.0,0.,24.0
1979-08-07 17:20:06.380 ,3,1,0.,24.0,0.,24.0,0.,24.0,0.,24.0
1979-08-07 17:20:30.380 ,3,0,0.,24.0,0.,24.0,0.,24.0,0.,24.0
1979-08-07 17:20:54.380 ,2,1,0.,24.0,0.,24.0,0.,24.0,0.,24.0
1979-08-07 17:21:18.380 ,2,0,0.,24.0,0.,24.0,0.,24.0,0.,24.0
1979-08-07 17:21:42.380 ,1,1,0.,24.0,0.,24.0,0.,24.0,0.,24.0
1979-08-07 17:22:06.380 ,1,0,0.,24.0,0.,24.0,0.,24.0,0.,24.0
1979-08-07 17:22:30.380 ,0,1,0.,24.0,0.,24.0,0.,24.0,0.,24.0
1979-08-07 17:22:54.380 ,0,0,0.,24.0,0.,24.0,0.,24.0,0.,24.0
1979-08-07 17:23:18.380 ,0,1,0.,24.0,0.,24.0,0.,24.0,0.,24.0
1979-08-07 17:23:42.380 ,0,0,1.,24.0,0.,24.0,0.,24.0,0.,24.0
1979-08-07 17:24:06.380 ,1,1,0.,24.0,0.,24.0,0.,24.0,0.,24.0
1979-08-07 17:24:30.380 ,1,0,0.,24.0,0.,24.0,0.,24.0,0.,24.0
1979-08-07 17:24:54.380 ,2,1,0.,24.0,0.,24.0,0.,24.0,0.,24.0
1979-08-07 17:25:18.380 ,2,0,0.,24.0,0.,24.0,0.,24.0,0.,24.0
1979-08-07 17:25:42.380 ,3,1,0.,24.0,0.,24.0,0.,24.0,0.,24.0
1979-08-07 17:26:06.380 ,3,0,0.,24.0,0.,24.0,0.,24.0,0.,24.0
1979-08-07 17:26:30.380 ,4,1,0.,24.0,0.,24.0,0.,24.0,0.,24.0
1979-08-07 17:26:54.380 ,4,0,0.,24.0,0.,24.0,0.,24.0,0.,24.0
1979-08-07 17:27:18.380 ,5,1,0.,24.0,0.,24.0,0.,24.0,0.,24.0
1979-08-07 17:27:42.380 ,5,0,0.,24.0,0.,24.0,0.,24.0,0.,24.0
1979-08-07 17:28:06.380 ,6,1,0.,24.0,0.,24.0,0.,24.0,0.,24.0
1979-08-07 17:28:30.380 ,6,0,0.,24.0,0.,24.0,0.,24.0,0.,24.0
1979-08-07 17:28:54.380 ,7,1,0.,24.0,0.,24.0,0.,24.0,0.,24.0
1979-08-07 17:29:18.380 ,7,0,0.,24.0,0.,24.0,0.,24.0,0.,24.0
1979-08-07 17:29:42.380 ,7,1,0.,24.0,0.,24.0,0.,24.0,0.,24.0
1979-08-07 17:30:06.380 ,7,0,0.,24.0,0.,24.0,0.,24.0,0.,24.0
1979-08-07 17:30:30.380 ,6,1,0.,24.0,0.,24.0,0.,24.0,0.,24.0
1979-08-07 17:30:54.380 ,6,0,0.,24.0,0.,24.0,0.,24.0,0.,24.0
1979-08-07 17:31:18.380 ,5,1,1.,24.0,0.,24.0,0.,24.0,0.,24.0
1979-08-07 17:31:42.380 ,5,0,0.,24.0,0.,24.0,0.,24.0,0.,24.0
1979-08-07 17:32:06.380 ,4,1,0.,24.0,0.,24.0,0.,24.0,0.,24.0
1979-08-07 17:32:30.380 ,4,0,0.,24.0,0.,24.0,0.,24.0,0.,24.0
1979-08-07 17:32:54.380 ,3,1,0.,24.0,0.,24.0,0.,24.0,0.,24.0
1979-08-07 17:33:18.380 ,3,0,0.,24.0,0.,24.0,0.,24.0,0.,24.0
1979-08-07 17:33:42.380 ,2,1,0.,24.0,0.,24.0,0.,24.0,0.,24.0
1979-08-07 17:34:06.380 ,2,0,0.,24.0,0.,24.0,0.,24.0,0.,24.0